{"data":{"norad_id":53011,"epoch":"2026-09-19T16:23:26.453184Z","epoch_age_seconds":139552,"freshness":"FRESH","line1":"1 53011U 22076AB  26262.68294506 -.00001946  00000+0 -46505-4 0  9990","line2":"2 53011  53.1606 285.2131 0001270  75.6685 284.4458 15.34371280232378","mean_motion":15.3437128,"eccentricity":0.000127,"inclination_deg":53.1606,"raan_deg":285.2131,"arg_perigee_deg":75.6685,"mean_anomaly_deg":284.4458,"bstar":-4.6505e-5,"rev_number":23237,"period_min":93.849514701553,"perigee_km":461.91980587942,"apogee_km":463.65740098269,"semimajor_km":6840.9256034311,"source":"CELESTRAK","updated_at":"2026-09-20T09:00:40.143910Z"}}